When you browse on this site, cookies collect data to enhance your experience and personalize the content and advertising you see.
Visit our Privacy Policy to learn more. By continuing to use the site, you agree to this use of cookies and data.
  • In United Kingdom
  • List of Countries
  • For 7 days
  • Water Temperature
  • Weather Map
  • Weather Widgets
  • user-avatar
    Login

    Hourly Weather Moquegua

    Today, 16 September, Monday

    Time Temperature Precipitation Wind Pressure Humidity
    00:00 +14°C° 0 mm 0 mps 643 mmHg 56%
    01:00 +14°C° 0 mm 0 mps 642 mmHg 57%
    02:00 +14°C° 0 mm 0 mps 642 mmHg 56%
    03:00 +14°C° 0 mm 0 mps 642 mmHg 56%
    04:00 +14°C° 0 mm 0 mps 642 mmHg 55%
    05:00 +16°C° 0 mm 0 mps 643 mmHg 48%
    06:00 +18°C° 0 mm 0 mps 644 mmHg 41%
    07:00 +20°C° 0 mm 0 mps 645 mmHg 34%
    08:00 +24°C° 0 mm 1 mps 645 mmHg 30%
    09:00 +26°C° 0 mm 2 mps 646 mmHg 26%
    10:00 +28°C° 0 mm 3 mps 646 mmHg 22%
    11:00 +28°C° 0 mm 4 mps 646 mmHg 23%
    12:00 +29°C° 0 mm 4 mps 645 mmHg 24%
    13:00 +29°C° 0 mm 5 mps 644 mmHg 25%
    14:00 +28°C° 0 mm 4 mps 644 mmHg 29%
    15:00 +26°C° 0 mm 4 mps 644 mmHg 33%
    16:00 +25°C° 0 mm 3 mps 643 mmHg 37%
    17:00 +23°C° 0 mm 2 mps 643 mmHg 45%
    18:00 +21°C° 0 mm 1 mps 643 mmHg 53%
    19:00 +16°C° 0 mm 0 mps 643 mmHg 61%
    20:00 +16°C° 0 mm 0 mps 643 mmHg 61%
    21:00 +16°C° 0 mm 0 mps 643 mmHg 61%
    22:00 +15°C° 0 mm 0 mps 643 mmHg 62%
    23:00 +15°C° 0 mm 0 mps 642 mmHg 63%

    Tomorrow, 17 September, Tuesday

    Time Temperature Precipitation Wind Pressure Humidity
    00:00 +15°C° 0 mm 0 mps 642 mmHg 63%
    01:00 +14°C° 0 mm 0 mps 641 mmHg 64%
    02:00 +14°C° 0 mm 0 mps 641 mmHg 65%
    03:00 +14°C° 0 mm 0 mps 641 mmHg 67%
    04:00 +13°C° 0 mm 0 mps 641 mmHg 68%
    05:00 +16°C° 0 mm 0 mps 642 mmHg 58%
    06:00 +18°C° 0 mm 0 mps 643 mmHg 48%
    07:00 +20°C° 0 mm 0 mps 644 mmHg 38%
    08:00 +24°C° 0 mm 1 mps 645 mmHg 33%
    09:00 +25°C° 0 mm 3 mps 645 mmHg 29%
    10:00 +27°C° 0 mm 4 mps 646 mmHg 24%
    11:00 +27°C° 0 mm 4 mps 646 mmHg 23%
    12:00 +27°C° 0 mm 4 mps 645 mmHg 22%
    13:00 +28°C° 0 mm 5 mps 645 mmHg 22%
    14:00 +27°C° 0 mm 4 mps 645 mmHg 22%
    15:00 +27°C° 0 mm 4 mps 645 mmHg 22%
    16:00 +26°C° 0 mm 3 mps 645 mmHg 23%
    17:00 +23°C° 0 mm 2 mps 644 mmHg 33%
    18:00 +21°C° 0 mm 1 mps 644 mmHg 44%
    19:00 +16°C° 0 mm 0 mps 643 mmHg 55%
    20:00 +15°C° 0 mm 0 mps 643 mmHg 53%
    21:00 +15°C° 0 mm 0 mps 643 mmHg 52%
    22:00 +15°C° 0 mm 0 mps 643 mmHg 51%
    23:00 +14°C° 0 mm 0 mps 643 mmHg 52%

    Day after tomorrow, 18 September, Wednesday

    Time Temperature Precipitation Wind Pressure Humidity
    00:00 +14°C° 0 mm 0 mps 642 mmHg 53%
    01:00 +13°C° 0 mm 0 mps 642 mmHg 53%
    02:00 +13°C° 0 mm 0 mps 642 mmHg 54%
    03:00 +13°C° 0 mm 0 mps 641 mmHg 54%
    04:00 +13°C° 0 mm 0 mps 641 mmHg 55%
    05:00 +16°C° 0 mm 0 mps 642 mmHg 47%
    06:00 +18°C° 0 mm 0 mps 643 mmHg 38%
    07:00 +21°C° 0 mm 0 mps 644 mmHg 30%
    08:00 +24°C° 0 mm 1 mps 644 mmHg 27%
    09:00 +26°C° 0 mm 2 mps 645 mmHg 24%
    10:00 +28°C° 0 mm 3 mps 645 mmHg 20%
    11:00 +28°C° 0 mm 4 mps 644 mmHg 21%
    12:00 +29°C° 0 mm 4 mps 644 mmHg 22%
    13:00 +29°C° 0 mm 4 mps 644 mmHg 22%
    14:00 +28°C° 0 mm 4 mps 643 mmHg 27%
    15:00 +26°C° 0 mm 4 mps 642 mmHg 32%
    16:00 +25°C° 0 mm 3 mps 642 mmHg 36%
    17:00 +21°C° 0 mm 2 mps 641 mmHg 46%
    18:00 +20°C° 0 mm 1 mps 641 mmHg 56%
    19:00 +15°C° 0 mm 0 mps 641 mmHg 66%
    20:00 +15°C° 0 mm 0 mps 641 mmHg 68%
    21:00 +14°C° 0 mm 0 mps 641 mmHg 69%
    22:00 +14°C° 0 mm 0 mps 642 mmHg 70%
    23:00 +13°C° 0 mm 0 mps 641 mmHg 70%

    19 September, Thursday

    Time Temperature Precipitation Wind Pressure Humidity
    00:00 +13°C° 0 mm 0 mps 641 mmHg 71%
    01:00 +13°C° 0 mm 0 mps 641 mmHg 71%
    02:00 +12°C° 0 mm 0 mps 641 mmHg 71%
    03:00 +12°C° 0 mm 0 mps 641 mmHg 71%
    04:00 +12°C° 0 mm 0 mps 640 mmHg 71%
    05:00 +14°C° 0 mm 0 mps 642 mmHg 61%
    06:00 +17°C° 0 mm 0 mps 643 mmHg 51%
    07:00 +19°C° 0 mm 0 mps 644 mmHg 41%
    08:00 +23°C° 0 mm 1 mps 644 mmHg 36%
    09:00 +25°C° 0 mm 2 mps 645 mmHg 31%
    10:00 +26°C° 0 mm 3 mps 645 mmHg 26%
    11:00 +27°C° 0 mm 4 mps 645 mmHg 25%
    12:00 +27°C° 0 mm 4 mps 645 mmHg 25%
    13:00 +27°C° 0 mm 4 mps 644 mmHg 25%
    14:00 +26°C° 0 mm 4 mps 644 mmHg 29%
    15:00 +25°C° 0 mm 4 mps 643 mmHg 34%
    16:00 +24°C° 0 mm 3 mps 642 mmHg 39%
    17:00 +20°C° 0 mm 2 mps 642 mmHg 49%
    18:00 +18°C° 0 mm 1 mps 642 mmHg 60%
    19:00 +14°C° 0 mm 0 mps 641 mmHg 70%
    20:00 +13°C° 0 mm 0 mps 642 mmHg 70%
    21:00 +13°C° 0 mm 0 mps 642 mmHg 69%
    22:00 +13°C° 0 mm 0 mps 642 mmHg 69%
    23:00 +12°C° 0 mm 0 mps 642 mmHg 70%

    20 September, Friday

    Time Temperature Precipitation Wind Pressure Humidity
    00:00 +12°C° 0 mm 0 mps 642 mmHg 70%
    01:00 +11°C° 0 mm 0 mps 641 mmHg 71%
    02:00 +11°C° 0 mm 0 mps 641 mmHg 70%
    03:00 +11°C° 0 mm 0 mps 641 mmHg 70%
    04:00 +10°C° 0 mm 0 mps 641 mmHg 69%
    05:00 +13°C° 0 mm 0 mps 642 mmHg 59%
    06:00 +15°C° 0 mm 0 mps 643 mmHg 48%
    07:00 +18°C° 0 mm 0 mps 644 mmHg 38%
    08:00 +22°C° 0 mm 1 mps 645 mmHg 32%
    09:00 +24°C° 0 mm 2 mps 645 mmHg 27%
    10:00 +26°C° 0 mm 3 mps 646 mmHg 21%
    11:00 +27°C° 0 mm 4 mps 645 mmHg 21%
    12:00 +27°C° 0 mm 4 mps 644 mmHg 22%
    13:00 +27°C° 0 mm 5 mps 644 mmHg 23%
    14:00 +26°C° 0 mm 4 mps 643 mmHg 26%
    15:00 +25°C° 0 mm 4 mps 643 mmHg 30%
    16:00 +24°C° 0 mm 3 mps 642 mmHg 34%
    17:00 +20°C° 0 mm 2 mps 642 mmHg 45%
    18:00 +18°C° 0 mm 1 mps 642 mmHg 56%
    19:00 +14°C° 0 mm 0 mps 641 mmHg 67%
    20:00 +14°C° 0 mm 0 mps 642 mmHg 65%
    21:00 +14°C° 0 mm 0 mps 642 mmHg 63%
    22:00 +14°C° 0 mm 0 mps 642 mmHg 61%
    23:00 +13°C° 0 mm 0 mps 642 mmHg 62%

    21 September, Saturday

    Time Temperature Precipitation Wind Pressure Humidity
    00:00 +13°C° 0 mm 0 mps 642 mmHg 62%
    01:00 +13°C° 0 mm 0 mps 641 mmHg 62%
    02:00 +12°C° 0 mm 0 mps 641 mmHg 63%
    03:00 +12°C° 0 mm 0 mps 641 mmHg 64%
    04:00 +12°C° 0 mm 0 mps 641 mmHg 65%
    05:00 +14°C° 0 mm 0 mps 642 mmHg 55%
    06:00 +16°C° 0 mm 0 mps 643 mmHg 46%
    07:00 +19°C° 0 mm 0 mps 644 mmHg 37%
    08:00 +23°C° 0 mm 1 mps 645 mmHg 30%
    09:00 +24°C° 0 mm 2 mps 645 mmHg 24%
    10:00 +26°C° 0 mm 3 mps 646 mmHg 17%
    11:00 +27°C° 0 mm 4 mps 645 mmHg 17%
    12:00 +27°C° 0 mm 4 mps 645 mmHg 17%
    13:00 +28°C° 0 mm 5 mps 644 mmHg 16%
    14:00 +27°C° 0 mm 4 mps 644 mmHg 20%
    15:00 +26°C° 0 mm 4 mps 643 mmHg 25%
    16:00 +25°C° 0 mm 3 mps 643 mmHg 29%
    17:00 +21°C° 0 mm 2 mps 643 mmHg 38%
    18:00 +19°C° 0 mm 1 mps 642 mmHg 48%
    19:00 +15°C° 0 mm 0 mps 642 mmHg 58%
    20:00 +15°C° 0 mm 0 mps 642 mmHg 57%
    21:00 +14°C° 0 mm 0 mps 642 mmHg 57%
    22:00 +14°C° 0 mm 0 mps 642 mmHg 57%
    23:00 +13°C° 0 mm 0 mps 642 mmHg 59%
    Show more